Location: Curupao
(10.4996°N, 66.6442°W)
Time: 12:46:12
(UTC+00:00)

Hubble Space Telescope - Pass Details

Date: 23 May 2024
Orbit: 510 x 514 km, 28.5° (Epoch: 24 June)

Event Time Altitude Azimuth Distance (km) Brightness Sun altitude
Exits shadow 08:30:20 29° 329° (NNW) 950 1.9 -21.8°
Maximum altitude 08:31:58 48° 26° (NNE) 667 1.5 -21.4°
Drops below altitude 10° 08:35:47 10° 102° (ESE) 1,713 4.0 -20.6°
Sets 08:38:05 0° 108° (ESE) 2,599 5.0 -20.1°
